JCSAT-18 (KACIFIC 1)

Last updated on Jan. 17, 2020, 12:02 a.m. UTC

1 44868U 19091A   20016.68481943 -.00000204  00000-0  00000+0 0  9998
2 44868   0.0470 259.2027 0002182  35.0214 217.9502  1.00269921   598
UTC
Height (km)
Latitude
Longitude
Inclination
Orbital Period
UTC large
Height (km)
Speed (km/s)
/
Latitude / Longitude
Inclination (degrees)
Orbital Period (minutes)
Azimuth
Elevation
Range (km)
Doppler Factor
iOS Compass Heading
iOS Angle

Next 30 passes for location: Hong Kong

Rise time Rise Azimuth (degrees) Set time Set Azimuth (degrees) Duration Max altitude (degrees)

No matching passes for this satellites